sat.trackr.live / text

‹ back to catalog

UNKNOWN

NORAD 87042

UNKNOWN UNKNOWN UNKNOWN

§ Identity

Operator
Country
Launch date
Launch site
Launch vehicle
Mass (kg)
RCS (m²)

External: N2YO · Heavens-Above

§ Orbital elements

Epoch: 2026-09-17T08:57:44.475552Z

Period
102.31 min
Inclination
98.6851°
Eccentricity
0.0043492
Mean motion
14.07515349 rev/d
Perigee alt
836.4 km
Apogee alt
899.4 km
Semi-major
7,246.0 km
B*
2.6034e-4
RAAN
298.1871°
Arg perigee
30.5956°
Mean anomaly
329.7737°
Rev number
59,315

§ Raw data

UNKNOWN1 87042U          26260.37343143  .00000401  00000+0  26034-3 0  99972 87042  98.6851 298.1871 0043492  30.5956 329.7737 14.07515349593156

JSON: /api/v1/satellites/87042 · /tle

For live sub-satellite position, see the globe view (requires WebGL).

§ Visibility from observer

Set your observer location to see the next 7 days of passes ≥ 10°. The values pass through the URL so the page stays shareable.

No JS? Fill the form by hand. The geolocation button needs JavaScript.